| time (UTC) | temp F | wind direction | speed MPH | gust MPH | rain 1hr in | rain 24hr in | rain mn in | humidity % | barometer mb |
| 20260510160537 | 59 | 125 | 3.0 | 10.0 | 0.00 | 0.00 | 0.00 | 70 | 1016.3 |
| 20260510160038 | 59 | 206 | 3.0 | 9.0 | 0.00 | 0.00 | 0.00 | 70 | 1016.2 |
| 20260510155534 | 58 | 171 | 2.0 | 7.0 | 0.00 | 0.00 | 0.00 | 71 | 1016.2 |
| 20260510155033 | 58 | 201 | 3.0 | 7.0 | 0.00 | 0.00 | 0.00 | 71 | 1016.1 |
| 20260510154533 | 58 | 189 | 2.0 | 9.0 | 0.00 | 0.00 | 0.00 | 71 | 1016.0 |
| 20260510154032 | 58 | 143 | 4.0 | 9.0 | 0.00 | 0.00 | 0.00 | 73 | 1015.9 |
| 20260510153529 | 58 | 236 | 2.0 | 9.0 | 0.00 | 0.00 | 0.00 | 73 | 1015.9 |
| 20260510153028 | 57 | 207 | 1.0 | 7.0 | 0.00 | 0.00 | 0.00 | 74 | 1016.1 |
| 20260510152527 | 57 | 87 | 1.0 | 6.0 | 0.00 | 0.00 | 0.00 | 74 | 1016.0 |
| 20260510152029 | 57 | 76 | 1.0 | 6.0 | 0.00 | 0.00 | 0.00 | 74 | 1016.0 |
| 20260510151536 | 57 | 279 | 2.0 | 5.0 | 0.00 | 0.00 | 0.00 | 74 | 1016.1 |
| 20260510151023 | 56 | 131 | 1.0 | 6.0 | 0.00 | 0.00 | 0.00 | 74 | 1016.1 |
| 20260510150524 | 56 | 160 | 2.0 | 6.0 | 0.00 | 0.00 | 0.00 | 74 | 1016.2 |
| 20260510150020 | 56 | 155 | 2.0 | 6.0 | 0.00 | 0.00 | 0.00 | 74 | 1016.2 |
| 20260510145518 | 56 | 194 | 1.0 | 6.0 | 0.00 | 0.00 | 0.00 | 74 | 1016.1 |
| 20260510145017 | 55 | 207 | 2.0 | 5.0 | 0.00 | 0.00 | 0.00 | 74 | 1016.0 |
| 20260510144517 | 55 | 26 | 1.0 | 5.0 | 0.00 | 0.00 | 0.00 | 74 | 1015.8 |
| 20260510144015 | 55 | 207 | 0.0 | 6.0 | 0.00 | 0.00 | 0.00 | 74 | 1016.0 |
| 20260510143514 | 55 | 178 | 1.0 | 5.0 | 0.00 | 0.00 | 0.00 | 74 | 1015.9 |
| 20260510143014 | 55 | 197 | 1.0 | 3.0 | 0.00 | 0.00 | 0.00 | 75 | 1015.8 |
| 20260510142518 | 54 | 261 | 1.0 | 4.0 | 0.00 | 0.00 | 0.00 | 74 | 1015.8 |
| 20260510142018 | 54 | 197 | 2.0 | 5.0 | 0.00 | 0.00 | 0.00 | 76 | 1016.0 |
| 20260510141514 | 53 | 210 | 2.0 | 5.0 | 0.00 | 0.00 | 0.00 | 77 | 1015.8 |
| 20260510141013 | 53 | 89 | 1.0 | 4.0 | 0.00 | 0.00 | 0.00 | 77 | 1015.7 |
| 20260510140511 | 53 | 284 | 0.0 | 3.0 | 0.00 | 0.00 | 0.00 | 77 | 1016.0 |
| 20260510140009 | 53 | 149 | 0.0 | 5.0 | 0.00 | 0.00 | 0.00 | 77 | 1015.9 |
| 20260510135509 | 52 | 30 | 0.0 | 5.0 | 0.00 | 0.00 | 0.00 | 78 | 1015.8 |
| 20260510135011 | 52 | 27 | 1.0 | 5.0 | 0.00 | 0.00 | 0.00 | 78 | 1015.7 |
| 20260510134507 | 52 | 130 | 1.0 | 5.0 | 0.00 | 0.00 | 0.00 | 78 | 1015.7 |
| 20260510134006 | 51 | 49 | 2.0 | 5.0 | 0.00 | 0.00 | 0.00 | 77 | 1015.6 |
| 20260510133504 | 51 | 10 | 2.0 | 4.0 | 0.00 | 0.00 | 0.00 | 77 | 1015.8 |
| 20260510133004 | 51 | 10 | 1.0 | 3.0 | 0.00 | 0.00 | 0.00 | 77 | 1015.7 |
| 20260510132503 | 51 | 24 | 1.0 | 2.0 | 0.00 | 0.00 | 0.00 | 77 | 1015.6 |
| 20260510132003 | 51 | 24 | 1.0 | 2.0 | 0.00 | 0.00 | 0.00 | 76 | 1015.6 |
| 20260510131502 | 51 | 24 | 0.0 | 3.0 | 0.00 | 0.00 | 0.00 | 76 | 1015.5 |
| 20260510131002 | 51 | 24 | 1.0 | 3.0 | 0.00 | 0.00 | 0.00 | 76 | 1015.4 |
| 20260510130502 | 51 | 317 | 0.0 | 2.0 | 0.00 | 0.00 | 0.00 | 75 | 1015.5 |
| 20260510125559 | 51 | 17 | 0.0 | 3.0 | 0.00 | 0.00 | 0.00 | 75 | 1015.3 |
| 20260510125058 | 52 | 17 | 1.0 | 3.0 | 0.00 | 0.00 | 0.00 | 75 | 1015.3 |
| 20260510124605 | 52 | 73 | 1.0 | 2.0 | 0.00 | 0.00 | 0.00 | 74 | 1015.4 |
| 20260510124057 | 52 | 73 | 0.0 | 2.0 | 0.00 | 0.00 | 0.00 | 74 | 1015.6 |
| 20260510123556 | 52 | 73 | 1.0 | 2.0 | 0.00 | 0.00 | 0.00 | 73 | 1015.5 |
| 20260510123100 | 52 | 73 | 0.0 | 2.0 | 0.00 | 0.00 | 0.00 | 73 | 1015.5 |
| 20260510122557 | 52 | 73 | 1.0 | 2.0 | 0.00 | 0.00 | 0.00 | 72 | 1015.5 |
| 20260510122053 | 52 | 73 | 1.0 | 2.0 | 0.00 | 0.00 | 0.00 | 72 | 1015.6 |
| 20260510121553 | 53 | 73 | 0.0 | 1.0 | 0.00 | 0.00 | 0.00 | 72 | 1015.6 |
| 20260510121053 | 53 | 73 | 0.0 | 1.0 | 0.00 | 0.00 | 0.00 | 71 | 1015.6 |
| 20260510120555 | 53 | 73 | 0.0 | 3.0 | 0.00 | 0.00 | 0.00 | 71 | 1015.6 |
| 20260510120051 | 53 | 73 | 1.0 | 3.0 | 0.00 | 0.00 | 0.00 | 71 | 1015.5 |
| 20260510115551 | 53 | 36 | 1.0 | 3.0 | 0.00 | 0.00 | 0.00 | 71 | 1015.5 |
| 20260510115050 | 53 | 19 | 1.0 | 3.0 | 0.00 | 0.00 | 0.00 | 71 | 1015.5 |
| 20260510114553 | 54 | 27 | 1.0 | 3.0 | 0.00 | 0.00 | 0.00 | 70 | 1015.5 |
| 20260510114048 | 54 | 92 | 0.0 | 1.0 | 0.00 | 0.00 | 0.00 | 70 | 1015.6 |
| 20260510113547 | 54 | 92 | 0.0 | 1.0 | 0.00 | 0.00 | 0.00 | 70 | 1015.5 |
| 20260510113047 | 54 | 92 | 0.0 | 2.0 | 0.00 | 0.00 | 0.00 | 70 | 1015.6 |
| 20260510112550 | 54 | 92 | 0.0 | 2.0 | 0.00 | 0.00 | 0.00 | 69 | 1015.6 |
| 20260510112046 | 54 | 52 | 0.0 | 1.0 | 0.00 | 0.00 | 0.00 | 69 | 1015.6 |
| 20260510111555 | 54 | 52 | 0.0 | 2.0 | 0.00 | 0.00 | 0.00 | 68 | 1015.5 |
| 20260510111045 | 54 | 52 | 0.0 | 4.0 | 0.00 | 0.00 | 0.00 | 66 | 1015.5 |
| 20260510110545 | 54 | 35 | 1.0 | 5.0 | 0.00 | 0.00 | 0.00 | 64 | 1015.4 |
| 20260510110146 | 54 | 5 | 2.0 | 5.0 | 0.00 | 0.00 | 0.00 | 64 | 1015.4 |
| 20260510105546 | 55 | 43 | 1.0 | 4.0 | 0.00 | 0.00 | 0.00 | 65 | 1015.3 |
| 20260510105046 | 55 | 47 | 1.0 | 9.0 | 0.00 | 0.00 | 0.00 | 63 | 1015.2 |
| 20260510104546 | 55 | 5 | 3.0 | 9.0 | 0.00 | 0.00 | 0.00 | 62 | 1015.2 |
| 20260510104042 | 55 | 324 | 4.0 | 6.0 | 0.00 | 0.00 | 0.00 | 66 | 1015.3 |
| 20260510103546 | 55 | 360 | 2.0 | 6.0 | 0.00 | 0.00 | 0.00 | 65 | 1015.2 |
| 20260510103045 | 55 | 340 | 3.0 | 8.0 | 0.00 | 0.00 | 0.00 | 62 | 1015.2 |
| 20260510102546 | 55 | 360 | 3.0 | 8.0 | 0.00 | 0.00 | 0.00 | 63 | 1015.2 |
| 20260510102044 | 55 | 5 | 3.0 | 8.0 | 0.00 | 0.00 | 0.00 | 63 | 1015.2 |
| 20260510101544 | 55 | 333 | 4.0 | 8.0 | 0.00 | 0.00 | 0.00 | 65 | 1015.2 |
| 20260510101040 | 55 | 334 | 2.0 | 5.0 | 0.00 | 0.00 | 0.00 | 65 | 1015.2 |
| 20260510100540 | 55 | 18 | 2.0 | 4.0 | 0.00 | 0.00 | 0.00 | 64 | 1015.3 |
| 20260510100044 | 55 | 14 | 2.0 | 4.0 | 0.00 | 0.00 | 0.00 | 63 | 1015.3 |
| 20260510095540 | 55 | 16 | 2.0 | 10.0 | 0.00 | 0.00 | 0.00 | 61 | 1015.4 |
| 20260510095038 | 55 | 360 | 3.0 | 10.0 | 0.00 | 0.00 | 0.00 | 60 | 1015.4 |
| 20260510094546 | 55 | 19 | 4.0 | 8.0 | 0.00 | 0.00 | 0.00 | 60 | 1015.5 |
| 20260510094037 | 55 | 39 | 4.0 | 8.0 | 0.00 | 0.00 | 0.00 | 63 | 1015.5 |
| 20260510093537 | 55 | 360 | 2.0 | 6.0 | 0.00 | 0.00 | 0.00 | 62 | 1015.5 |
| 20260510093037 | 55 | 360 | 2.0 | 8.0 | 0.00 | 0.00 | 0.00 | 60 | 1015.4 |
| 20260510092537 | 55 | 10 | 4.0 | 9.0 | 0.00 | 0.00 | 0.00 | 61 | 1015.5 |
| 20260510092040 | 54 | 339 | 4.0 | 9.0 | 0.00 | 0.00 | 0.00 | 62 | 1015.6 |
| 20260510091541 | 54 | 354 | 4.0 | 9.0 | 0.00 | 0.00 | 0.00 | 63 | 1015.7 |
| 20260510091035 | 54 | 334 | 3.0 | 8.0 | 0.00 | 0.00 | 0.00 | 67 | 1015.7 |
| 20260510090535 | 54 | 349 | 2.0 | 8.0 | 0.00 | 0.00 | 0.00 | 64 | 1015.6 |
| 20260510090035 | 54 | 350 | 3.0 | 9.0 | 0.00 | 0.00 | 0.00 | 65 | 1015.6 |
| 20260510085533 | 54 | 10 | 4.0 | 9.0 | 0.00 | 0.00 | 0.00 | 66 | 1015.6 |
| 20260510085032 | 54 | 345 | 4.0 | 8.0 | 0.00 | 0.00 | 0.00 | 69 | 1015.7 |
| 20260510084535 | 55 | 347 | 2.0 | 4.0 | 0.00 | 0.00 | 0.00 | 67 | 1015.7 |
| 20260510084031 | 55 | 343 | 2.0 | 5.0 | 0.00 | 0.00 | 0.00 | 66 | 1015.6 |
| 20260510083531 | 55 | 10 | 3.0 | 6.0 | 0.00 | 0.00 | 0.00 | 64 | 1015.6 |
| 20260510083048 | 55 | 5 | 3.0 | 6.0 | 0.00 | 0.00 | 0.00 | 63 | 1015.7 |
| 20260510082528 | 55 | 16 | 3.0 | 5.0 | 0.00 | 0.00 | 0.00 | 66 | 1015.7 |
| 20260510082032 | 55 | 337 | 2.0 | 4.0 | 0.00 | 0.00 | 0.00 | 65 | 1015.7 |
| 20260510081527 | 55 | 360 | 2.0 | 5.0 | 0.00 | 0.00 | 0.00 | 63 | 1015.6 |
| 20260510081027 | 55 | 5 | 1.0 | 5.0 | 0.00 | 0.00 | 0.00 | 60 | 1015.6 |
| 20260510080526 | 55 | 350 | 3.0 | 6.0 | 0.00 | 0.00 | 0.00 | 60 | 1015.5 |
| 20260510080027 | 55 | 333 | 3.0 | 6.0 | 0.00 | 0.00 | 0.00 | 60 | 1015.6 |
| 20260510075526 | 55 | 51 | 2.0 | 4.0 | 0.00 | 0.00 | 0.00 | 61 | 1015.7 |
| 20260510075026 | 55 | 355 | 2.0 | 5.0 | 0.00 | 0.00 | 0.00 | 61 | 1015.6 |
| 20260510074522 | 56 | 360 | 3.0 | 5.0 | 0.00 | 0.00 | 0.00 | 61 | 1015.5 |
| 20260510074024 | 56 | 353 | 1.0 | 4.0 | 0.00 | 0.00 | 0.00 | 60 | 1015.4 |
| 20260510073521 | 56 | 16 | 1.0 | 5.0 | 0.00 | 0.00 | 0.00 | 59 | 1015.3 |
| 20260510073022 | 56 | 328 | 2.0 | 4.0 | 0.00 | 0.00 | 0.00 | 59 | 1015.3 |
| 20260510072524 | 56 | 327 | 2.0 | 8.0 | 0.00 | 0.00 | 0.00 | 60 | 1015.3 |
| 20260510072020 | 56 | 328 | 4.0 | 8.0 | 0.00 | 0.00 | 0.00 | 58 | 1015.4 |
| 20260510071525 | 56 | 41 | 2.0 | 6.0 | 0.00 | 0.00 | 0.00 | 58 | 1015.4 |
| 20260510071019 | 56 | 360 | 2.0 | 6.0 | 0.00 | 0.00 | 0.00 | 58 | 1015.4 |
| 20260510070518 | 56 | 324 | 2.0 | 4.0 | 0.00 | 0.00 | 0.00 | 60 | 1015.4 |
| 20260510070017 | 56 | 360 | 2.0 | 5.0 | 0.00 | 0.00 | 0.00 | 59 | 1015.4 |
| 20260510065517 | 56 | 50 | 2.0 | 5.0 | 0.00 | 0.00 | 0.00 | 59 | 1015.4 |
| 20260510065019 | 56 | 353 | 2.0 | 5.0 | 0.00 | 0.00 | 0.00 | 59 | 1015.4 |
| 20260510064515 | 56 | 351 | 3.0 | 5.0 | 0.00 | 0.00 | 0.00 | 60 | 1015.3 |
| 20260510064014 | 56 | 360 | 2.0 | 4.0 | 0.00 | 0.00 | 0.00 | 61 | 1015.4 |
| 20260510063515 | 56 | 344 | 2.0 | 8.0 | 0.00 | 0.00 | 0.00 | 60 | 1015.4 |
| 20260510063016 | 56 | 24 | 1.0 | 8.0 | 0.00 | 0.00 | 0.00 | 59 | 1015.4 |
| 20260510062514 | 56 | 360 | 3.0 | 6.0 | 0.00 | 0.00 | 0.00 | 59 | 1015.4 |
| 20260510062012 | 56 | 42 | 4.0 | 6.0 | 0.00 | 0.00 | 0.00 | 60 | 1015.5 |
| 20260510061512 | 56 | 26 | 2.0 | 8.0 | 0.00 | 0.00 | 0.00 | 60 | 1015.5 |
| 20260510061012 | 56 | 37 | 3.0 | 8.0 | 0.00 | 0.00 | 0.00 | 59 | 1015.5 |
| 20260510060512 | 56 | 360 | 3.0 | 6.0 | 0.00 | 0.00 | 0.00 | 58 | 1015.6 |
| 20260510060019 | 56 | 19 | 3.0 | 6.0 | 0.00 | 0.00 | 0.00 | 57 | 1015.5 |
| 20260510055511 | 56 | 21 | 3.0 | 6.0 | 0.00 | 0.00 | 0.00 | 57 | 1015.5 |
| 20260510055013 | 57 | 360 | 2.0 | 4.0 | 0.00 | 0.00 | 0.00 | 57 | 1015.5 |
| 20260510054513 | 57 | 16 | 2.0 | 4.0 | 0.00 | 0.00 | 0.00 | 57 | 1015.4 |
| 20260510054014 | 57 | 21 | 2.0 | 4.0 | 0.00 | 0.00 | 0.00 | 56 | 1015.3 |
| 20260510053509 | 57 | 29 | 1.0 | 3.0 | 0.00 | 0.00 | 0.00 | 56 | 1015.4 |
| 20260510053009 | 57 | 45 | 1.0 | 3.0 | 0.00 | 0.00 | 0.00 | 56 | 1015.4 |
| 20260510052514 | 58 | 45 | 1.0 | 3.0 | 0.00 | 0.00 | 0.00 | 56 | 1015.5 |
| 20260510052009 | 58 | 56 | 1.0 | 3.0 | 0.00 | 0.00 | 0.00 | 55 | 1015.6 |
| 20260510051512 | 58 | 47 | 1.0 | 3.0 | 0.00 | 0.00 | 0.00 | 55 | 1015.6 |
| 20260510051010 | 58 | 31 | 1.0 | 3.0 | 0.00 | 0.00 | 0.00 | 54 | 1015.5 |
| 20260510050507 | 58 | 31 | 1.0 | 4.0 | 0.00 | 0.00 | 0.00 | 53 | 1015.5 |
| 20260510050008 | 58 | 5 | 1.0 | 4.0 | 0.00 | 0.00 | 0.00 | 53 | 1015.6 |
| 20260510045512 | 59 | 37 | 2.0 | 4.0 | 0.00 | 0.00 | 0.00 | 53 | 1015.7 |
| 20260510045006 | 59 | 39 | 2.0 | 5.0 | 0.00 | 0.00 | 0.00 | 53 | 1015.7 |
| 20260510044504 | 59 | 14 | 2.0 | 5.0 | 0.00 | 0.00 | 0.00 | 52 | 1015.8 |
| 20260510044003 | 59 | 41 | 2.0 | 4.0 | 0.00 | 0.00 | 0.00 | 53 | 1015.8 |
| 20260510043503 | 59 | 43 | 2.0 | 4.0 | 0.00 | 0.00 | 0.00 | 52 | 1015.8 |
| 20260510043002 | 59 | 35 | 1.0 | 3.0 | 0.00 | 0.00 | 0.00 | 51 | 1015.8 |
| 20260510042505 | 59 | 20 | 1.0 | 6.0 | 0.00 | 0.00 | 0.00 | 51 | 1015.8 |
| 20260510042003 | 59 | 30 | 2.0 | 6.0 | 0.00 | 0.00 | 0.00 | 51 | 1015.7 |
| 20260510041502 | 59 | 22 | 3.0 | 5.0 | 0.00 | 0.00 | 0.00 | 52 | 1015.8 |
| 20260510041003 | 60 | 10 | 2.0 | 5.0 | 0.00 | 0.00 | 0.00 | 52 | 1015.8 |
| 20260510040503 | 60 | 10 | 3.0 | 5.0 | 0.00 | 0.00 | 0.00 | 52 | 1015.8 |
| 20260510040002 | 60 | 10 | 3.0 | 5.0 | 0.00 | 0.00 | 0.00 | 54 | 1015.7 |
| 20260510035502 | 60 | 10 | 3.0 | 4.0 | 0.00 | 0.00 | 0.00 | 54 | 1015.7 |
| 20260510035002 | 61 | 41 | 2.0 | 4.0 | 0.00 | 0.00 | 0.00 | 56 | 1015.6 |
| 20260510034503 | 61 | 338 | 3.0 | 4.0 | 0.00 | 0.00 | 0.00 | 55 | 1015.7 |
| 20260510034002 | 61 | 343 | 2.0 | 4.0 | 0.00 | 0.00 | 0.00 | 55 | 1015.6 |
| 20260510033502 | 62 | 10 | 1.0 | 3.0 | 0.00 | 0.00 | 0.00 | 56 | 1015.6 |
| 20260510033111 | 62 | 341 | 2.0 | 3.0 | 0.00 | 0.00 | 0.00 | 56 | 1015.6 |
| 20260510032600 | 62 | 10 | 1.0 | 3.0 | 0.00 | 0.00 | 0.00 | 55 | 1015.6 |
| 20260510032100 | 63 | 10 | 2.0 | 4.0 | 0.00 | 0.00 | 0.00 | 57 | 1015.6 |
| 20260510031600 | 63 | 29 | 1.0 | 4.0 | 0.00 | 0.00 | 0.00 | 56 | 1015.6 |
| 20260510031059 | 63 | 10 | 2.0 | 3.0 | 0.00 | 0.00 | 0.00 | 57 | 1015.6 |
| 20260510030559 | 64 | 10 | 2.0 | 3.0 | 0.00 | 0.00 | 0.00 | 58 | 1015.7 |
| 20260510030106 | 64 | 360 | 1.0 | 3.0 | 0.00 | 0.00 | 0.00 | 57 | 1015.7 |
| 20260510025559 | 64 | 336 | 2.0 | 3.0 | 0.00 | 0.00 | 0.00 | 58 | 1015.8 |
| 20260510025058 | 64 | 42 | 0.0 | 4.0 | 0.00 | 0.00 | 0.00 | 57 | 1015.7 |
| 20260510024557 | 64 | 42 | 1.0 | 4.0 | 0.00 | 0.00 | 0.00 | 55 | 1015.8 |
| 20260510024101 | 65 | 45 | 1.0 | 4.0 | 0.00 | 0.00 | 0.00 | 58 | 1015.8 |
| 20260510023557 | 65 | 278 | 0.0 | 1.0 | 0.00 | 0.00 | 0.00 | 59 | 1015.9 |
| 20260510023055 | 65 | 278 | 0.0 | 2.0 | 0.00 | 0.00 | 0.00 | 56 | 1016.0 |
| 20260510022555 | 66 | 278 | 0.0 | 2.0 | 0.00 | 0.00 | 0.00 | 56 | 1016.0 |
| 20260510022055 | 66 | 278 | 0.0 | 1.0 | 0.00 | 0.00 | 0.00 | 55 | 1016.1 |
| 20260510021600 | 66 | 278 | 0.0 | 1.0 | 0.00 | 0.00 | 0.00 | 54 | 1016.2 |
| 20260510021053 | 66 | 278 | 0.0 | 2.0 | 0.00 | 0.00 | 0.00 | 55 | 1016.2 |
| 20260510020553 | 66 | 278 | 0.0 | 2.0 | 0.00 | 0.00 | 0.00 | 54 | 1016.2 |
| 20260510020052 | 66 | 278 | 1.0 | 2.0 | 0.00 | 0.00 | 0.00 | 53 | 1016.3 |
| 20260510015552 | 66 | 278 | 0.0 | 1.0 | 0.00 | 0.00 | 0.00 | 53 | 1016.4 |
| 20260510015050 | 66 | 278 | 0.0 | 2.0 | 0.00 | 0.00 | 0.00 | 53 | 1016.5 |
| 20260510014549 | 67 | 278 | 1.0 | 2.0 | 0.00 | 0.00 | 0.00 | 52 | 1016.6 |
| 20260510014049 | 67 | 278 | 0.0 | 4.0 | 0.00 | 0.00 | 0.00 | 52 | 1016.6 |
| 20260510013549 | 67 | 274 | 1.0 | 4.0 | 0.00 | 0.00 | 0.00 | 52 | 1016.6 |
| 20260510013049 | 67 | 204 | 1.0 | 4.0 | 0.00 | 0.00 | 0.00 | 51 | 1016.7 |
| 20260510012547 | 67 | 196 | 1.0 | 4.0 | 0.00 | 0.00 | 0.00 | 51 | 1016.8 |
| 20260510012048 | 67 | 222 | 0.0 | 3.0 | 0.00 | 0.00 | 0.00 | 51 | 1016.8 |
| 20260510011547 | 67 | 211 | 2.0 | 4.0 | 0.00 | 0.00 | 0.00 | 51 | 1017.0 |
| 20260510011045 | 67 | 219 | 2.0 | 4.0 | 0.00 | 0.00 | 0.00 | 52 | 1017.0 |
| 20260510010547 | 68 | 240 | 1.0 | 4.0 | 0.00 | 0.00 | 0.00 | 51 | 1017.0 |
| 20260510010043 | 68 | 276 | 0.0 | 7.0 | 0.00 | 0.00 | 0.00 | 49 | 1017.1 |
| 20260510005544 | 68 | 199 | 3.0 | 7.0 | 0.00 | 0.00 | 0.00 | 49 | 1017.3 |
| 20260510005041 | 68 | 190 | 2.0 | 7.0 | 0.00 | 0.00 | 0.00 | 50 | 1017.4 |
| 20260510004544 | 68 | 225 | 5.0 | 7.0 | 0.00 | 0.00 | 0.00 | 49 | 1017.4 |
| 20260510004040 | 68 | 218 | 2.0 | 6.0 | 0.00 | 0.00 | 0.00 | 49 | 1017.4 |
| 20260510003540 | 68 | 226 | 1.0 | 8.0 | 0.00 | 0.00 | 0.00 | 50 | 1017.4 |
| 20260510003042 | 68 | 133 | 3.0 | 8.0 | 0.00 | 0.00 | 0.00 | 50 | 1017.5 |
| 20260510002539 | 68 | 185 | 4.0 | 9.0 | 0.00 | 0.00 | 0.00 | 49 | 1017.5 |
| 20260510002039 | 68 | 198 | 6.0 | 9.0 | 0.00 | 0.00 | 0.00 | 48 | 1017.5 |
| 20260510001539 | 69 | 238 | 2.0 | 7.0 | 0.00 | 0.00 | 0.00 | 49 | 1017.5 |
| 20260510001038 | 68 | 147 | 1.0 | 7.0 | 0.00 | 0.00 | 0.00 | 49 | 1017.7 |
| 20260510000536 | 68 | 203 | 1.0 | 7.0 | 0.00 | 0.00 | 0.00 | 51 | 1017.8 |
| 20260510000037 | 67 | 195 | 4.0 | 9.0 | 0.00 | 0.00 | 0.00 | 50 | 1017.9 |
| 20260509235535 | 68 | 199 | 5.0 | 9.0 | 0.00 | 0.00 | 0.00 | 49 | 1017.9 |
| 20260509235034 | 68 | 240 | 1.0 | 8.0 | 0.00 | 0.00 | 0.00 | 49 | 1018.1 |
| 20260509234539 | 68 | 222 | 3.0 | 8.0 | 0.00 | 0.00 | 0.00 | 49 | 1018.2 |
| 20260509234033 | 68 | 203 | 2.0 | 7.0 | 0.00 | 0.00 | 0.00 | 49 | 1018.2 |
| 20260509233531 | 68 | 206 | 4.0 | 8.0 | 0.00 | 0.00 | 0.00 | 49 | 1018.3 |
| 20260509233035 | 68 | 213 | 3.0 | 8.0 | 0.00 | 0.00 | 0.00 | 49 | 1018.4 |
| 20260509232535 | 69 | 174 | 3.0 | 9.0 | 0.00 | 0.00 | 0.00 | 50 | 1018.4 |
| 20260509232030 | 68 | 22 | 2.0 | 7.0 | 0.00 | 0.00 | 0.00 | 49 | 1018.6 |
| 20260509231528 | 68 | 220 | 1.0 | 8.0 | 0.00 | 0.00 | 0.00 | 50 | 1018.7 |
| 20260509231027 | 68 | 170 | 4.0 | 10.0 | 0.00 | 0.00 | 0.00 | 49 | 1018.8 |
| 20260509230526 | 68 | 221 | 3.0 | 10.0 | 0.00 | 0.00 | 0.00 | 51 | 1018.9 |
| 20260509230025 | 67 | 220 | 2.0 | 9.0 | 0.00 | 0.00 | 0.00 | 51 | 1019.1 |
| 20260509225524 | 67 | 177 | 2.0 | 7.0 | 0.00 | 0.00 | 0.00 | 50 | 1019.0 |
| 20260509225022 | 67 | 209 | 2.0 | 8.0 | 0.00 | 0.00 | 0.00 | 51 | 1019.2 |
| 20260509224521 | 66 | 203 | 2.0 | 8.0 | 0.00 | 0.00 | 0.00 | 52 | 1019.3 |
| 20260509224021 | 66 | 173 | 3.0 | 9.0 | 0.00 | 0.00 | 0.00 | 52 | 1019.3 |
| 20260509223521 | 66 | 253 | 4.0 | 12.0 | 0.00 | 0.00 | 0.00 | 52 | 1019.5 |
| 20260509223019 | 66 | 207 | 4.0 | 12.0 | 0.00 | 0.00 | 0.00 | 52 | 1019.5 |
| 20260509222520 | 66 | 216 | 6.0 | 10.0 | 0.00 | 0.00 | 0.00 | 52 | 1019.5 |
| 20260509222019 | 66 | 200 | 4.0 | 8.0 | 0.00 | 0.00 | 0.00 | 53 | 1019.4 |
| 20260509221518 | 66 | 211 | 3.0 | 7.0 | 0.00 | 0.00 | 0.00 | 53 | 1019.5 |
| 20260509221018 | 66 | 223 | 3.0 | 7.0 | 0.00 | 0.00 | 0.00 | 53 | 1019.5 |
| 20260509220517 | 66 | 169 | 2.0 | 6.0 | 0.00 | 0.00 | 0.00 | 53 | 1019.7 |
| 20260509220024 | 66 | 106 | 1.0 | 5.0 | 0.00 | 0.00 | 0.00 | 52 | 1019.6 |
| 20260509215516 | 66 | 185 | 1.0 | 8.0 | 0.00 | 0.00 | 0.00 | 53 | 1019.8 |
| 20260509215015 | 66 | 221 | 5.0 | 9.0 | 0.00 | 0.00 | 0.00 | 51 | 1019.8 |
| 20260509214514 | 66 | 212 | 4.0 | 9.0 | 0.00 | 0.00 | 0.00 | 54 | 1020.0 |
| 20260509214015 | 65 | 219 | 5.0 | 9.0 | 0.00 | 0.00 | 0.00 | 54 | 1020.0 |
| 20260509213514 | 65 | 255 | 1.0 | 10.0 | 0.00 | 0.00 | 0.00 | 56 | 1020.1 |
| 20260509213015 | 65 | 211 | 4.0 | 11.0 | 0.00 | 0.00 | 0.00 | 55 | 1020.2 |
| 20260509212513 | 65 | 247 | 6.0 | 11.0 | 0.00 | 0.00 | 0.00 | 56 | 1020.3 |
| 20260509212016 | 66 | 198 | 3.0 | 10.0 | 0.00 | 0.00 | 0.00 | 56 | 1020.4 |
| 20260509211513 | 66 | 207 | 5.0 | 10.0 | 0.00 | 0.00 | 0.00 | 55 | 1020.3 |
| 20260509211012 | 66 | 213 | 6.0 | 10.0 | 0.00 | 0.00 | 0.00 | 56 | 1020.0 |
| 20260509210512 | 66 | 198 | 4.0 | 10.0 | 0.00 | 0.00 | 0.00 | 55 | 1020.0 |
| 20260509210012 | 66 | 175 | 4.0 | 8.0 | 0.00 | 0.00 | 0.00 | 54 | 1020.1 |
| 20260509205511 | 66 | 215 | 3.0 | 8.0 | 0.00 | 0.00 | 0.00 | 54 | 1019.8 |
| 20260509205009 | 66 | 212 | 5.0 | 8.0 | 0.00 | 0.00 | 0.00 | 55 | 1020.0 |
| 20260509204508 | 65 | 176 | 3.0 | 6.0 | 0.00 | 0.00 | 0.00 | 56 | 1020.1 |
| 20260509204009 | 64 | 115 | 1.0 | 7.0 | 0.00 | 0.00 | 0.00 | 57 | 1019.9 |
| 20260509203506 | 64 | 211 | 4.0 | 8.0 | 0.00 | 0.00 | 0.00 | 59 | 1020.2 |
| 20260509203010 | 64 | 226 | 4.0 | 9.0 | 0.00 | 0.00 | 0.00 | 58 | 1020.3 |
| 20260509202504 | 64 | 201 | 3.0 | 9.0 | 0.00 | 0.00 | 0.00 | 59 | 1020.7 |
| 20260509202005 | 64 | 227 | 4.0 | 11.0 | 0.00 | 0.00 | 0.00 | 58 | 1020.8 |
| 20260509201504 | 64 | 141 | 5.0 | 11.0 | 0.00 | 0.00 | 0.00 | 57 | 1020.7 |
| 20260509201005 | 65 | 237 | 3.0 | 9.0 | 0.00 | 0.00 | 0.00 | 57 | 1020.7 |
| 20260509200503 | 65 | 205 | 5.0 | 10.0 | 0.00 | 0.00 | 0.00 | 57 | 1020.7 |
| 20260509200002 | 65 | 168 | 4.0 | 11.0 | 0.00 | 0.00 | 0.00 | 57 | 1020.8 |
| 20260509195501 | 65 | 166 | 4.0 | 9.0 | 0.00 | 0.00 | 0.00 | 58 | 1020.8 |
| 20260509195001 | 64 | 214 | 2.0 | 9.0 | 0.00 | 0.00 | 0.00 | 59 | 1020.8 |
| 20260509194601 | 64 | 268 | 5.0 | 10.0 | 0.00 | 0.00 | 0.00 | 58 | 1020.8 |
| 20260509194100 | 64 | 198 | 6.0 | 10.0 | 0.00 | 0.00 | 0.00 | 59 | 1020.8 |
| 20260509193559 | 64 | 184 | 6.0 | 10.0 | 0.00 | 0.00 | 0.00 | 58 | 1020.8 |
| 20260509193059 | 64 | 225 | 5.0 | 10.0 | 0.00 | 0.00 | 0.00 | 58 | 1020.9 |
| 20260509192558 | 64 | 171 | 4.0 | 10.0 | 0.00 | 0.00 | 0.00 | 58 | 1020.9 |
| 20260509192057 | 64 | 226 | 5.0 | 10.0 | 0.00 | 0.00 | 0.00 | 58 | 1020.8 |
| 20260509191557 | 64 | 158 | 6.0 | 10.0 | 0.00 | 0.00 | 0.00 | 58 | 1020.8 |
| 20260509191056 | 64 | 193 | 2.0 | 5.0 | 0.00 | 0.00 | 0.00 | 59 | 1021.0 |
| 20260509190553 | 63 | 222 | 3.0 | 7.0 | 0.00 | 0.00 | 0.00 | 60 | 1021.1 |
| 20260509190053 | 62 | 172 | 2.0 | 7.0 | 0.00 | 0.00 | 0.00 | 62 | 1021.2 |
| 20260509185551 | 62 | 146 | 1.0 | 5.0 | 0.00 | 0.00 | 0.00 | 62 | 1021.3 |
| 20260509185050 | 61 | 165 | 1.0 | 5.0 | 0.00 | 0.00 | 0.00 | 62 | 1021.4 |
| 20260509184555 | 61 | 189 | 0.0 | 5.0 | 0.00 | 0.00 | 0.00 | 62 | 1021.4 |
| 20260509184049 | 61 | 231 | 1.0 | 5.0 | 0.00 | 0.00 | 0.00 | 62 | 1021.4 |
| 20260509183549 | 61 | 226 | 1.0 | 7.0 | 0.00 | 0.00 | 0.00 | 63 | 1021.4 |
| 20260509183149 | 61 | 230 | 3.0 | 7.0 | 0.00 | 0.00 | 0.00 | 63 | 1021.4 |
| 20260509182552 | 61 | 163 | 1.0 | 7.0 | 0.00 | 0.00 | 0.00 | 64 | 1021.4 |
| 20260509182047 | 61 | 266 | 0.0 | 7.0 | 0.00 | 0.00 | 0.00 | 64 | 1021.5 |
| 20260509181557 | 61 | 207 | 2.0 | 4.0 | 0.00 | 0.00 | 0.00 | 64 | 1021.6 |
| 20260509181047 | 61 | 270 | 1.0 | 6.0 | 0.00 | 0.00 | 0.00 | 63 | 1021.6 |
| 20260509180547 | 61 | 262 | 1.0 | 6.0 | 0.00 | 0.00 | 0.00 | 63 | 1021.7 |
| 20260509180048 | 61 | 216 | 1.0 | 5.0 | 0.00 | 0.00 | 0.00 | 64 | 1021.6 |
| 20260509175548 | 61 | 274 | 1.0 | 5.0 | 0.00 | 0.00 | 0.00 | 63 | 1021.5 |
| 20260509175048 | 61 | 272 | 2.0 | 6.0 | 0.00 | 0.00 | 0.00 | 64 | 1021.5 |
| 20260509174547 | 62 | 210 | 1.0 | 6.0 | 0.00 | 0.00 | 0.00 | 63 | 1021.5 |
| 20260509174046 | 61 | 10 | 3.0 | 4.0 | 0.00 | 0.00 | 0.00 | 66 | 1021.5 |
| 20260509173543 | 61 | 216 | 0.0 | 5.0 | 0.00 | 0.00 | 0.00 | 65 | 1021.5 |
| 20260509173046 | 60 | 134 | 2.0 | 5.0 | 0.00 | 0.00 | 0.00 | 66 | 1021.5 |
| 20260509172541 | 60 | 270 | 1.0 | 4.0 | 0.00 | 0.00 | 0.00 | 67 | 1021.6 |
| 20260509172043 | 60 | 245 | 2.0 | 5.0 | 0.00 | 0.00 | 0.00 | 66 | 1021.7 |
| 20260509171540 | 60 | 249 | 1.0 | 5.0 | 0.00 | 0.00 | 0.00 | 66 | 1021.7 |
| 20260509171039 | 60 | 285 | 1.0 | 6.0 | 0.00 | 0.00 | 0.00 | 65 | 1021.8 |
| 20260509170540 | 60 | 220 | 3.0 | 6.0 | 0.00 | 0.00 | 0.00 | 67 | 1021.8 |
| 20260509170046 | 60 | 224 | 3.0 | 5.0 | 0.00 | 0.00 | 0.00 | 67 | 1021.9 |
| 20260509165535 | 60 | 284 | 1.0 | 4.0 | 0.00 | 0.00 | 0.00 | 69 | 1021.9 |
| 20260509165034 | 59 | 284 | 0.0 | 5.0 | 0.00 | 0.00 | 0.00 | 68 | 1021.9 |
| 20260509164540 | 59 | 284 | 1.0 | 4.0 | 0.00 | 0.00 | 0.00 | 68 | 1021.9 |
| 20260509164033 | 59 | 222 | 1.0 | 4.0 | 0.00 | 0.00 | 0.00 | 69 | 1022.0 |
| 20260509163531 | 59 | 222 | 1.0 | 3.0 | 0.00 | 0.00 | 0.00 | 69 | 1022.0 |
| 20260509163033 | 58 | 266 | 0.0 | 6.0 | 0.00 | 0.00 | 0.00 | 70 | 1022.0 |
| 20260509162529 | 58 | 263 | 3.0 | 6.0 | 0.00 | 0.00 | 0.00 | 71 | 1022.0 |
| 20260509162028 | 58 | 226 | 0.0 | 4.0 | 0.00 | 0.00 | 0.00 | 71 | 1022.1 |
| 20260509161532 | 57 | 320 | 2.0 | 4.0 | 0.00 | 0.00 | 0.00 | 72 | 1022.2 |
| 20260509161024 | 57 | 298 | 2.0 | 4.0 | 0.00 | 0.00 | 0.00 | 72 | 1022.3 |